Location: Wien
(48.2082°N, 16.3738°E)
Time: 00:12:31
(UTC+02:00)

CUTE 1.7 + AOD 2 - Visible Passes

Search period start: 25 April 2024 00:00
Search period end: 05 May 2024 00:00
Orbit: 570 x 588 km, 97.8° (Epoch: 23 April)

Date Brightness Start Highest point End Pass type
(mag) Time Alt. Az. Time Alt. Az. Time Alt. Az.
25 Apr ? 03:53:28 10° NNE 03:57:05 30° E 04:00:40 10° SSE visible
26 Apr ? 03:58:06 10° NNE 04:01:50 33° E 04:05:31 10° SSE visible
27 Apr ? 04:02:44 10° NNE 04:06:32 37° E 04:10:19 10° SSE visible
28 Apr ? 04:07:21 10° NNE 04:11:14 41° E 04:15:05 10° S visible
29 Apr ? 04:11:57 10° NNE 04:15:54 46° E 04:19:50 10° S visible
30 Apr ? 04:16:33 10° NNE 04:20:33 52° E 04:24:31 10° S visible
01 May ? 04:21:07 10° NNE 04:25:10 58° E 04:29:11 10° S visible
02 May ? 04:25:41 10° NNE 04:29:45 66° ESE 04:33:48 10° S visible
03 May ? 04:30:14 10° NNE 04:34:20 74° ESE 04:38:23 10° S visible
04 May ? 04:34:46 10° NNE 04:38:51 82° E 04:42:56 10° SSW visible
